GW2757 Weather Reports


time (UTC)temp
C
wind
direction
speed
KPH
gust
KPH
rain 1hr
cm
rain 24hr
cm
rain mn
cm
humidity
%
barometer
mb
20260906234541 27 0 0.0 0.0 0.00 0.00 0.00 23 1012.4
20260906234019 27 0 0.0 0.0 0.00 0.00 0.00 24 1012.4
20260906233519 27 0 0.0 0.0 0.00 0.00 0.00 22 1012.4
20260906233039 27 0 0.0 0.0 0.00 0.00 0.00 23 1012.4
20260906232521 27 0 0.0 0.0 0.00 0.00 0.00 23 1012.4
20260906232019 27 0 0.0 0.0 0.00 0.00 0.00 23 1012.4
20260906231536 27 0 0.0 0.0 0.00 0.00 0.00 21 1012.5
20260906231015 27 0 0.0 0.0 0.00 0.00 0.00 22 1012.5
20260906230518 27 0 0.0 0.0 0.00 0.00 0.00 21 1012.6
20260906230035 27 0 0.0 0.0 0.00 0.00 0.00 22 1012.7
20260906225521 27 0 0.0 20.9 0.00 0.00 0.00 23 1012.7
20260906225020 27 0 0.0 20.9 0.00 0.00 0.00 22 1012.7
20260906224541 27 194 9.7 17.7 0.00 0.00 0.00 21 1012.8
20260906224019 27 0 0.0 0.0 0.00 0.00 0.00 21 1012.7
20260906223516 27 0 0.0 0.0 0.00 0.00 0.00 20 1012.7
20260906223037 27 0 0.0 0.0 0.00 0.00 0.00 19 1012.9
20260906222518 27 0 0.0 0.0 0.00 0.00 0.00 18 1013.1
20260906222018 27 0 0.0 0.0 0.00 0.00 0.00 19 1013.1
20260906221538 27 0 0.0 19.3 0.00 0.00 0.00 19 1013.3
20260906221018 27 0 0.0 27.4 0.00 0.00 0.00 18 1013.2
20260906220518 27 183 14.5 37.0 0.00 0.00 0.00 20 1013.2
20260906220040 27 157 17.7 37.0 0.00 0.00 0.00 19 1013.3
20260906215521 27 164 1.6 22.5 0.00 0.00 0.00 19 1013.4
20260906215020 28 0 0.0 0.0 0.00 0.00 0.00 16 1013.3
20260906214546 28 0 0.0 0.0 0.00 0.00 0.00 18 1013.4
20260906214016 28 0 0.0 0.0 0.00 0.00 0.00 17 1013.3
20260906213517 28 0 0.0 0.0 0.00 0.00 0.00 17 1013.4
20260906213040 28 0 0.0 0.0 0.00 0.00 0.00 16 1013.3
20260906212520 28 0 0.0 0.0 0.00 0.00 0.00 17 1013.2
20260906212019 28 0 0.0 0.0 0.00 0.00 0.00 17 1013.2
20260906211540 28 0 0.0 0.0 0.00 0.00 0.00 17 1013.3
20260906211019 28 0 0.0 30.6 0.00 0.00 0.00 17 1013.2
20260906210518 28 0 0.0 30.6 0.00 0.00 0.00 16 1013.3
20260906210044 28 189 12.9 30.6 0.00 0.00 0.00 17 1013.4
20260906205516 28 0 0.0 0.0 0.00 0.00 0.00 16 1013.4
20260906205019 28 0 0.0 0.0 0.00 0.00 0.00 16 1013.5
20260906204537 28 0 0.0 0.0 0.00 0.00 0.00 17 1013.5
20260906204018 28 0 0.0 0.0 0.00 0.00 0.00 16 1013.7
20260906203519 28 0 0.0 0.0 0.00 0.00 0.00 15 1013.6
20260906203035 28 0 0.0 0.0 0.00 0.00 0.00 15 1013.6
20260906202518 28 0 0.0 0.0 0.00 0.00 0.00 16 1013.6
20260906202021 28 0 0.0 0.0 0.00 0.00 0.00 16 1013.5
20260906201549 28 0 0.0 0.0 0.00 0.00 0.00 17 1013.5
20260906201017 28 0 0.0 19.3 0.00 0.00 0.00 18 1013.6
20260906200518 28 0 0.0 25.7 0.00 0.00 0.00 19 1013.7
20260906200036 28 169 12.9 35.4 0.00 0.00 0.00 18 1013.5
20260906195518 28 182 19.3 35.4 0.00 0.00 0.00 19 1013.6
20260906195018 28 188 16.1 37.0 0.00 0.00 0.00 19 1013.7
20260906194542 27 171 17.7 37.0 0.00 0.00 0.00 20 1013.8
20260906194019 27 205 19.3 30.6 0.00 0.00 0.00 20 1014.0
20260906193519 27 190 12.9 37.0 0.00 0.00 0.00 21 1014.0
20260906193036 27 194 19.3 37.0 0.00 0.00 0.00 20 1014.2
20260906192517 27 186 12.9 37.0 0.00 0.00 0.00 21 1014.4
20260906192020 27 198 16.1 37.0 0.00 0.00 0.00 21 1014.3
20260906191544 27 185 14.5 33.8 0.00 0.00 0.00 20 1014.4
20260906191017 27 175 16.1 32.2 0.00 0.00 0.00 20 1014.5
20260906190518 27 173 16.1 32.2 0.00 0.00 0.00 20 1014.7
20260906190042 27 156 14.5 33.8 0.00 0.00 0.00 19 1014.9
20260906185524 27 173 14.5 38.6 0.00 0.00 0.00 19 1015.0
20260906185016 27 171 20.9 38.6 0.00 0.00 0.00 19 1015.0
20260906184545 27 158 20.9 35.4 0.00 0.00 0.00 20 1015.1
20260906184020 27 186 11.3 27.4 0.00 0.00 0.00 20 1015.1
20260906183519 27 165 16.1 27.4 0.00 0.00 0.00 20 1015.3
20260906183044 26 105 8.0 30.6 0.00 0.00 0.00 21 1015.3
20260906182520 26 141 16.1 37.0 0.00 0.00 0.00 20 1015.4
20260906182021 26 194 12.9 37.0 0.00 0.00 0.00 23 1015.5
20260906181555 26 168 19.3 32.2 0.00 0.00 0.00 21 1015.5
20260906181018 26 170 14.5 33.8 0.00 0.00 0.00 22 1015.6
20260906180520 26 136 16.1 33.8 0.00 0.00 0.00 22 1015.5
20260906180040 26 188 14.5 25.7 0.00 0.00 0.00 22 1015.6
20260906175518 26 190 14.5 25.7 0.00 0.00 0.00 24 1015.8
20260906175022 25 170 9.7 35.4 0.00 0.00 0.00 23 1016.0
20260906174537 25 170 14.5 35.4 0.00 0.00 0.00 23 1016.0
20260906174019 25 176 9.7 25.7 0.00 0.00 0.00 23 1016.0
20260906173520 25 173 11.3 25.7 0.00 0.00 0.00 25 1016.0
20260906173043 25 185 14.5 25.7 0.00 0.00 0.00 26 1016.1
20260906172520 25 195 14.5 25.7 0.00 0.00 0.00 26 1016.3
20260906172019 24 158 12.9 25.7 0.00 0.00 0.00 27 1016.3
20260906171541 24 211 14.5 24.1 0.00 0.00 0.00 29 1016.4
20260906171018 24 204 11.3 22.5 0.00 0.00 0.00 28 1016.4
20260906170519 23 174 11.3 17.7 0.00 0.00 0.00 30 1016.6
20260906170038 23 185 4.8 17.7 0.00 0.00 0.00 31 1016.6
20260906165522 23 178 6.4 16.1 0.00 0.00 0.00 31 1016.7
20260906165019 22 190 6.4 17.7 0.00 0.00 0.00 32 1016.6
20260906164546 22 199 9.7 17.7 0.00 0.00 0.00 34 1016.6
20260906164018 22 160 6.4 14.5 0.00 0.00 0.00 36 1016.6
20260906163518 21 146 8.0 14.5 0.00 0.00 0.00 36 1016.7
20260906163052 21 184 8.0 12.9 0.00 0.00 0.00 36 1016.7
20260906162521 20 194 3.2 6.4 0.00 0.00 0.00 40 1016.7
20260906162018 20 230 1.6 6.4 0.00 0.00 0.00 40 1016.7
20260906161542 20 0 0.0 3.2 0.00 0.00 0.00 41 1016.7
20260906161020 19 0 0.0 3.2 0.00 0.00 0.00 41 1016.7
20260906160519 18 0 0.0 0.0 0.00 0.00 0.00 39 1016.8
20260906160041 18 0 0.0 0.0 0.00 0.00 0.00 40 1016.8
20260906155519 18 0 0.0 0.0 0.00 0.00 0.00 42 1016.8
20260906155019 17 0 0.0 0.0 0.00 0.00 0.00 42 1016.9
20260906154538 17 0 0.0 0.0 0.00 0.00 0.00 44 1017.0
20260906154020 17 0 0.0 0.0 0.00 0.00 0.00 49 1016.9
20260906153519 16 0 0.0 0.0 0.00 0.00 0.00 50 1017.0
20260906153039 16 0 0.0 0.0 0.00 0.00 0.00 52 1017.0
20260906152518 15 0 0.0 0.0 0.00 0.00 0.00 53 1017.1
20260906152021 15 0 0.0 0.0 0.00 0.00 0.00 47 1017.2
20260906151541 14 0 0.0 0.0 0.00 0.00 0.00 51 1017.2
20260906151019 13 0 0.0 0.0 0.00 0.00 0.00 53 1017.2
20260906150520 13 0 0.0 0.0 0.00 0.00 0.00 56 1017.1
20260906150040 12 0 0.0 0.0 0.00 0.00 0.00 56 1017.0
20260906145518 12 0 0.0 0.0 0.00 0.00 0.00 56 1017.1
20260906145019 11 0 0.0 0.0 0.00 0.00 0.00 59 1017.0
20260906144537 11 0 0.0 0.0 0.00 0.00 0.00 59 1017.1
20260906144021 10 0 0.0 0.0 0.00 0.00 0.00 60 1017.0
20260906143554 10 0 0.0 0.0 0.00 0.00 0.00 62 1017.0
20260906143048 9 0 0.0 0.0 0.00 0.00 0.00 63 1017.0
20260906142519 8 0 0.0 3.2 0.00 0.00 0.00 65 1017.1
20260906142018 8 0 0.0 3.2 0.00 0.00 0.00 64 1017.0
20260906141543 8 0 0.0 1.6 0.00 0.00 0.00 65 1017.0
20260906141022 7 0 0.0 1.6 0.00 0.00 0.00 67 1017.1
20260906140519 7 0 0.0 3.2 0.00 0.00 0.00 66 1017.1
20260906140053 7 0 0.0 3.2 0.00 0.00 0.00 65 1017.1
20260906135520 7 5 0.0 8.0 0.00 0.00 0.00 65 1017.1
20260906135019 7 5 3.2 8.0 0.00 0.00 0.00 65 1017.0
20260906134551 7 28 4.8 9.7 0.00 0.00 0.00 65 1016.8
20260906134019 7 13 3.2 9.7 0.00 0.00 0.00 65 1016.8
20260906133518 7 5 4.8 9.7 0.00 0.00 0.00 65 1016.8
20260906133044 7 47 4.8 11.3 0.00 0.00 0.00 65 1016.8
20260906132520 7 36 4.8 11.3 0.00 0.00 0.00 65 1016.7
20260906132019 7 19 6.4 12.9 0.00 0.00 0.00 65 1016.6
20260906131542 7 29 6.4 14.5 0.00 0.00 0.00 66 1016.6
20260906131019 7 20 6.4 14.5 0.00 0.00 0.00 66 1016.6
20260906130519 7 15 8.0 14.5 0.00 0.00 0.00 66 1016.5
20260906130042 7 360 8.0 12.9 0.00 0.00 0.00 66 1016.5
20260906125518 7 26 8.0 12.9 0.00 0.00 0.00 65 1016.5
20260906125022 7 26 6.4 11.3 0.00 0.00 0.00 65 1016.6
20260906124545 7 13 4.8 12.9 0.00 0.00 0.00 64 1016.5
20260906124020 7 26 6.4 12.9 0.00 0.00 0.00 65 1016.6
20260906123519 7 23 4.8 9.7 0.00 0.00 0.00 64 1016.6
20260906123044 7 13 1.6 8.0 0.00 0.00 0.00 63 1016.5
20260906122518 7 22 3.2 11.3 0.00 0.00 0.00 63 1016.4
20260906122025 7 34 4.8 11.3 0.00 0.00 0.00 64 1016.5
20260906121546 7 13 4.8 8.0 0.00 0.00 0.00 63 1016.4
20260906121019 7 0 1.6 8.0 0.00 0.00 0.00 62 1016.4
20260906120521 7 20 1.6 8.0 0.00 0.00 0.00 62 1016.4
20260906120042 8 23 3.2 9.7 0.00 0.00 0.00 62 1016.5
20260906115517 8 24 4.8 11.3 0.00 0.00 0.00 62 1016.5
20260906115018 8 28 6.4 11.3 0.00 0.00 0.00 62 1016.5
20260906114545 8 22 4.8 14.5 0.00 0.00 0.00 62 1016.4
20260906114019 8 20 6.4 14.5 0.00 0.00 0.00 62 1016.4
20260906113519 8 36 6.4 11.3 0.00 0.00 0.00 62 1016.4
20260906113043 8 12 3.2 11.3 0.00 0.00 0.00 62 1016.4
20260906112519 8 360 6.4 11.3 0.00 0.00 0.00 62 1016.3
20260906112019 8 23 4.8 12.9 0.00 0.00 0.00 62 1016.4
20260906111535 8 15 6.4 14.5 0.00 0.00 0.00 62 1016.4
20260906111019 8 16 9.7 14.5 0.00 0.00 0.00 61 1016.3
20260906110518 8 13 4.8 12.9 0.00 0.00 0.00 61 1016.3
20260906110036 8 17 4.8 14.5 0.00 0.00 0.00 61 1016.4
20260906105519 8 22 8.0 14.5 0.00 0.00 0.00 61 1016.4
20260906105019 8 25 6.4 12.9 0.00 0.00 0.00 61 1016.4
20260906104536 8 26 8.0 14.5 0.00 0.00 0.00 60 1016.3
20260906104018 8 360 8.0 14.5 0.00 0.00 0.00 60 1016.3
20260906103518 8 22 6.4 14.5 0.00 0.00 0.00 60 1016.2
20260906103033 8 5 9.7 14.5 0.00 0.00 0.00 61 1016.1
20260906102518 8 5 6.4 12.9 0.00 0.00 0.00 61 1016.0
20260906102018 8 17 4.8 12.9 0.00 0.00 0.00 62 1016.1
20260906101540 8 11 6.4 12.9 0.00 0.00 0.00 62 1015.9
20260906101020 8 5 8.0 12.9 0.00 0.00 0.00 62 1015.9
20260906100523 8 5 4.8 8.0 0.00 0.00 0.00 61 1015.9
20260906100035 8 11 4.8 8.0 0.00 0.00 0.00 60 1015.9
20260906095520 8 15 1.6 9.7 0.00 0.00 0.00 59 1015.8
20260906095019 8 17 3.2 9.7 0.00 0.00 0.00 59 1015.8
20260906094546 9 355 4.8 11.3 0.00 0.00 0.00 59 1015.6
20260906094019 8 0 4.8 12.9 0.00 0.00 0.00 58 1015.6
20260906093517 8 16 6.4 12.9 0.00 0.00 0.00 59 1015.6
20260906093036 9 9 8.0 12.9 0.00 0.00 0.00 58 1015.5
20260906092518 9 9 8.0 14.5 0.00 0.00 0.00 58 1015.5
20260906092022 9 13 9.7 14.5 0.00 0.00 0.00 57 1015.5
20260906091540 10 17 9.7 12.9 0.00 0.00 0.00 56 1015.4
20260906091020 10 360 4.8 14.5 0.00 0.00 0.00 54 1015.5
20260906090518 10 10 6.4 14.5 0.00 0.00 0.00 55 1015.4
20260906090039 10 22 8.0 12.9 0.00 0.00 0.00 56 1015.5
20260906085518 10 360 6.4 14.5 0.00 0.00 0.00 54 1015.4
20260906085019 10 13 8.0 14.5 0.00 0.00 0.00 54 1015.3
20260906084538 10 20 6.4 14.5 0.00 0.00 0.00 55 1015.5
20260906084019 10 25 6.4 12.9 0.00 0.00 0.00 57 1015.5
20260906083518 9 19 3.2 12.9 0.00 0.00 0.00 58 1015.5
20260906083037 9 21 4.8 16.1 0.00 0.00 0.00 58 1015.4
20260906082518 9 19 8.0 16.1 0.00 0.00 0.00 57 1015.5
20260906082017 9 13 8.0 16.1 0.00 0.00 0.00 57 1015.6
20260906081541 10 16 9.7 14.5 0.00 0.00 0.00 57 1015.6
20260906081018 10 5 8.0 14.5 0.00 0.00 0.00 56 1015.6
20260906080519 10 22 8.0 12.9 0.00 0.00 0.00 55 1015.6
20260906080039 10 20 8.0 12.9 0.00 0.00 0.00 54 1015.6
20260906075519 10 15 8.0 12.9 0.00 0.00 0.00 54 1015.6
20260906075023 10 26 3.2 14.5 0.00 0.00 0.00 53 1015.6
20260906074545 10 0 0.0 14.5 0.00 0.00 0.00 54 1015.6
20260906074019 10 19 9.7 14.5 0.00 0.00 0.00 54 1015.6
20260906073518 11 12 8.0 14.5 0.00 0.00 0.00 53 1015.5
20260906073043 11 5 6.4 16.1 0.00 0.00 0.00 51 1015.3
20260906072519 11 26 4.8 16.1 0.00 0.00 0.00 51 1015.2
20260906072020 10 26 12.9 16.1 0.00 0.00 0.00 54 1015.3
20260906071540 10 5 11.3 16.1 0.00 0.00 0.00 54 1015.3
20260906071020 11 5 9.7 16.1 0.00 0.00 0.00 52 1015.3
20260906070524 11 9 9.7 12.9 0.00 0.00 0.00 51 1015.1
20260906070040 11 13 4.8 14.5 0.00 0.00 0.00 50 1015.2
20260906065519 11 19 9.7 16.1 0.00 0.00 0.00 52 1015.3
20260906065018 11 24 8.0 16.1 0.00 0.00 0.00 52 1015.2
20260906064541 11 34 8.0 16.1 0.00 0.00 0.00 52 1015.1
20260906064020 11 15 9.7 14.5 0.00 0.00 0.00 50 1015.1
20260906063517 11 29 6.4 16.1 0.00 0.00 0.00 51 1015.1
20260906063040 11 5 8.0 16.1 0.00 0.00 0.00 52 1015.0
20260906062518 11 11 1.6 14.5 0.00 0.00 0.00 50 1014.8
20260906062019 11 0 3.2 16.1 0.00 0.00 0.00 50 1015.0
20260906061546 11 16 9.7 16.1 0.00 0.00 0.00 52 1014.9
20260906061019 11 5 12.9 16.1 0.00 0.00 0.00 51 1014.8
20260906060518 11 15 9.7 14.5 0.00 0.00 0.00 51 1015.0
20260906060058 11 32 8.0 14.5 0.00 0.00 0.00 51 1014.9
20260906055519 11 12 4.8 12.9 0.00 0.00 0.00 49 1015.0
20260906055020 11 35 8.0 14.5 0.00 0.00 0.00 50 1014.9
20260906054542 11 15 6.4 16.1 0.00 0.00 0.00 50 1015.0
20260906054019 12 24 8.0 17.7 0.00 0.00 0.00 50 1014.9
20260906053525 12 5 9.7 17.7 0.00 0.00 0.00 49 1014.8
20260906053037 12 12 12.9 17.7 0.00 0.00 0.00 48 1014.8
20260906052522 12 26 11.3 17.7 0.00 0.00 0.00 48 1015.0
20260906052019 12 20 12.9 17.7 0.00 0.00 0.00 47 1015.1
20260906051538 12 16 9.7 16.1 0.00 0.00 0.00 47 1015.1
20260906051019 13 20 9.7 14.5 0.00 0.00 0.00 46 1015.1
20260906050520 13 10 11.3 14.5 0.00 0.00 0.00 46 1015.1
20260906050037 13 5 8.0 14.5 0.00 0.00 0.00 45 1015.2
20260906045521 13 18 9.7 16.1 0.00 0.00 0.00 46 1015.2
20260906045022 13 28 9.7 16.1 0.00 0.00 0.00 46 1015.2
20260906044536 13 15 11.3 19.3 0.00 0.00 0.00 46 1015.3
20260906044024 13 19 11.3 19.3 0.00 0.00 0.00 46 1015.3
20260906043518 13 23 11.3 17.7 0.00 0.00 0.00 46 1015.5
20260906043039 13 5 11.3 17.7 0.00 0.00 0.00 45 1015.4
20260906042516 13 5 11.3 17.7 0.00 0.00 0.00 44 1015.4
20260906042016 14 9 8.0 16.1 0.00 0.00 0.00 44 1015.4
20260906041537 14 21 12.9 16.1 0.00 0.00 0.00 43 1015.4
20260906041017 15 14 4.8 12.9 0.00 0.00 0.00 41 1015.3
20260906040519 15 14 6.4 16.1 0.00 0.00 0.00 42 1015.3
20260906040041 15 18 9.7 16.1 0.00 0.00 0.00 42 1015.3
20260906035524 15 18 11.3 17.7 0.00 0.00 0.00 42 1015.4
20260906035017 15 28 11.3 17.7 0.00 0.00 0.00 42 1015.3
20260906034539 15 16 12.9 16.1 0.00 0.00 0.00 41 1015.3
20260906034018 15 21 11.3 16.1 0.00 0.00 0.00 40 1015.4
20260906033518 16 22 11.3 16.1 0.00 0.00 0.00 40 1015.3
20260906033039 16 13 9.7 16.1 0.00 0.00 0.00 39 1015.4
20260906032518 16 13 9.7 17.7 0.00 0.00 0.00 39 1015.4
20260906032022 16 5 12.9 17.7 0.00 0.00 0.00 38 1015.5
20260906031605 16 17 11.3 16.1 0.00 0.00 0.00 38 1015.4
20260906031018 17 12 9.7 17.7 0.00 0.00 0.00 38 1015.5
20260906030518 17 10 12.9 17.7 0.00 0.00 0.00 36 1015.5
20260906030038 17 19 9.7 16.1 0.00 0.00 0.00 37 1015.5
20260906025524 18 23 11.3 16.1 0.00 0.00 0.00 35 1015.4
20260906025018 18 5 11.3 16.1 0.00 0.00 0.00 34 1015.4
20260906024543 19 33 8.0 14.5 0.00 0.00 0.00 32 1015.3
20260906024019 19 14 6.4 14.5 0.00 0.00 0.00 31 1015.3
20260906023519 20 12 8.0 14.5 0.00 0.00 0.00 31 1015.2
20260906023045 20 21 11.3 14.5 0.00 0.00 0.00 30 1015.1
20260906022518 22 5 4.8 8.0 0.00 0.00 0.00 28 1015.0
20260906022018 23 96 1.6 4.8 0.00 0.00 0.00 26 1015.0
20260906021539 23 0 0.0 0.0 0.00 0.00 0.00 26 1015.0
20260906021022 24 0 0.0 0.0 0.00 0.00 0.00 24 1015.0
20260906020518 25 0 0.0 4.8 0.00 0.00 0.00 22 1015.0
20260906020047 25 0 0.0 4.8 0.00 0.00 0.00 22 1014.9
20260906015519 25 176 0.0 4.8 0.00 0.00 0.00 22 1014.9
20260906015019 26 0 0.0 0.0 0.00 0.00 0.00 22 1014.9
20260906014535 26 0 0.0 8.0 0.00 0.00 0.00 22 1014.8
20260906014021 26 0 0.0 8.0 0.00 0.00 0.00 22 1015.0
20260906013519 26 184 1.6 9.7 0.00 0.00 0.00 20 1015.0
20260906013038 26 0 0.0 12.9 0.00 0.00 0.00 20 1015.0
20260906012520 27 189 6.4 16.1 0.00 0.00 0.00 19 1014.9
20260906012024 27 184 4.8 17.7 0.00 0.00 0.00 19 1014.9
20260906011539 27 156 6.4 17.7 0.00 0.00 0.00 20 1015.0
20260906011018 27 175 6.4 29.0 0.00 0.00 0.00 19 1015.0
20260906010517 27 186 9.7 29.0 0.00 0.00 0.00 18 1014.9
20260906010039 27 164 8.0 25.7 0.00 0.00 0.00 19 1015.0
20260906005516 27 161 12.9 27.4 0.00 0.00 0.00 18 1014.9
20260906005016 27 182 9.7 27.4 0.00 0.00 0.00 18 1015.0
20260906004541 27 150 11.3 27.4 0.00 0.00 0.00 18 1015.0
20260906004018 28 174 12.9 27.4 0.00 0.00 0.00 19 1015.0
20260906003519 28 188 9.7 22.5 0.00 0.00 0.00 18 1015.0
20260906003042 28 199 11.3 20.9 0.00 0.00 0.00 18 1015.0
20260906002517 28 148 9.7 25.7 0.00 0.00 0.00 18 1015.0
20260906002019 28 153 11.3 25.7 0.00 0.00 0.00 18 1015.0
20260906001543 28 170 12.9 24.1 0.00 0.00 0.00 18 1015.0
20260906001023 28 166 8.0 22.5 0.00 0.00 0.00 17 1015.0
20260906000519 28 157 11.3 22.5 0.00 0.00 0.00 18 1015.0
20260906000037 28 173 9.7 27.4 0.00 0.00 0.00 17 1015.1
20260905235516 28 130 14.5 27.4 0.00 0.00 0.00 17 1015.0
20260905235021 28 146 12.9 25.7 0.00 0.00 0.00 17 1015.0